Le nostre stazioni meteo in Italia

Pubblicità
Il mio iltempo24.it
Otranto, Italia (16334): Temperatura & dewpoint: 02.04.2020 01:00:00 - 08.04.2020 01:00:00 (CEST)Otranto, Italia (16334): velocità del vento: 02.04.2020 01:00:00 - 08.04.2020 01:00:00 (CEST)Otranto, Italia (16334): direzione del vento: 02.04.2020 01:00:00 - 08.04.2020 01:00:00 (CEST)Otranto, Italia (16334): reduced air pressure: 02.04.2020 01:00:00 - 08.04.2020 01:00:00 (CEST)Otranto, Italia (16334): precipitazioni: 02.04.2020 01:00:00 - 08.04.2020 01:00:00 (CEST)
Data & Tempo tt [°C] td [°C] ff [km/h] ff [kn] dd ppp [hPa] rr [mm]
08.04.2020 01:00:00 - - - - - - -
08.04.2020 00:00:00 12,2 12,2 9 5 NO 1024,9 -
07.04.2020 23:00:00 12,1 12,1 13 7 N 1024,9 -
07.04.2020 22:00:00 12,8 12,8 15 8 NNO 1024,9 -
07.04.2020 21:00:00 13,1 13,0 15 8 NNO 1025,0 -
07.04.2020 20:00:00 13,8 13,1 16 9 NO 1024,3 0,0
07.04.2020 19:00:00 16,2 13,2 15 8 NNO 1024,0 -
07.04.2020 18:00:00 17,6 13,0 13 7 NNO 1024,0 -
07.04.2020 17:00:00 18,0 10,1 13 7 N 1024,0 -
07.04.2020 16:00:00 18,5 12,2 9 5 NNE 1023,7 -
07.04.2020 15:00:00 19,0 13,1 2 1 SSE 1023,9 -
07.04.2020 14:00:00 17,8 14,8 5 3 ENE 1024,5 0,0
07.04.2020 13:00:00 17,7 14,7 8 4 NE 1024,2 -
07.04.2020 12:00:00 17,0 14,2 9 5 E 1024,0 -
07.04.2020 11:00:00 16,7 14,3 11 6 NE 1023,7 -
07.04.2020 10:00:00 16,4 13,8 15 8 NE 1023,3 -
07.04.2020 09:00:00 14,7 12,5 13 7 NNE 1023,2 -
07.04.2020 08:00:00 14,2 12,7 16 9 NNE 1023,2 0,0
07.04.2020 07:00:00 10,9 10,9 11 6 N 1023,0 -
07.04.2020 06:00:00 11,0 11,0 5 3 NNO 1023,1 -
07.04.2020 05:00:00 11,0 11,0 5 3 NNO 1023,2 -
07.04.2020 04:00:00 11,2 11,2 4 2 NNO 1023,4 -
07.04.2020 03:00:00 13,2 13,1 4 2 E 1023,3 -
07.04.2020 02:00:00 13,1 13,0 4 2 N 1023,6 0,0
07.04.2020 01:00:00 13,2 13,1 4 2 NNE 1023,6 -
07.04.2020 00:00:00 13,5 13,4 4 2 NE 1023,5 -
06.04.2020 23:00:00 12,3 12,1 5 3 NNO 1023,3 -
06.04.2020 22:00:00 12,2 11,4 5 3 NNO 1023,2 -
06.04.2020 21:00:00 12,6 12,1 9 5 NNO 1023,0 -
06.04.2020 20:00:00 13,8 13,3 5 3 NNO 1022,4 0,0
06.04.2020 19:00:00 16,4 14,5 8 4 N 1022,1 -
06.04.2020 18:00:00 17,5 15,8 5 3 S 1022,0 -
06.04.2020 17:00:00 17,7 16,0 8 4 SSO 1021,9 -
06.04.2020 16:00:00 17,8 16,1 13 7 SSO 1022,0 -
06.04.2020 15:00:00 17,6 16,2 21 11 S 1022,1 -
06.04.2020 14:00:00 17,1 14,5 16 9 SSE 1022,3 0,0
06.04.2020 13:00:00 15,6 14,9 5 3 SSO 1022,3 -
06.04.2020 12:00:00 15,2 13,7 8 4 SSO 1022,2 -
06.04.2020 11:00:00 15,2 14,2 2 1 S 1021,9 -
06.04.2020 10:00:00 14,9 13,9 5 3 SSO 1021,4 -
06.04.2020 09:00:00 14,6 14,5 0 0 N 1020,8 -
06.04.2020 08:00:00 13,8 13,7 0 0 N 1020,4 0,0
06.04.2020 07:00:00 13,8 13,7 0 0 N 1019,4 -
06.04.2020 06:00:00 13,9 13,8 0 0 N 1018,4 -
06.04.2020 05:00:00 14,1 14,0 0 0 N 1017,9 -
06.04.2020 04:00:00 14,1 14,0 2 1 ESE 1017,5 -
06.04.2020 03:00:00 14,4 14,3 2 1 E 1017,3 -
06.04.2020 02:00:00 12,5 12,5 4 2 N 1017,4 0,0
06.04.2020 01:00:00 11,7 11,5 5 3 O 1017,0 -
06.04.2020 00:00:00 12,7 11,7 0 0 N 1016,6 -
05.04.2020 23:00:00 14,1 13,9 5 3 NE 1016,0 -
05.04.2020 22:00:00 14,5 13,5 8 4 NE 1015,9 -
05.04.2020 21:00:00 14,7 13,7 9 5 ENE 1015,2 -
05.04.2020 20:00:00 14,9 13,9 13 7 NE 1014,3 0,0
05.04.2020 19:00:00 15,4 14,4 15 8 N 1013,4 -
05.04.2020 18:00:00 15,7 14,7 16 9 NNE 1013,0 -
05.04.2020 17:00:00 15,7 15,6 13 7 N 1012,5 -
05.04.2020 16:00:00 15,6 15,4 15 8 N 1012,3 -
05.04.2020 15:00:00 16,1 15,1 18 10 N 1012,2 -
05.04.2020 14:00:00 16,5 15,5 18 10 N 1012,0 0,0
05.04.2020 13:00:00 16,5 15,5 21 11 N 1012,0 -
05.04.2020 12:00:00 16,4 14,9 24 13 NNE 1011,6 -
05.04.2020 11:00:00 16,1 15,4 22 12 NNE 1011,6 -
05.04.2020 10:00:00 16,1 15,4 22 12 NE 1010,9 -
05.04.2020 09:00:00 14,7 14,0 26 14 NNE 1010,3 -
05.04.2020 08:00:00 14,5 13,2 22 12 NNE 1009,7 0,0
05.04.2020 07:00:00 14,0 13,0 16 9 N 1009,4 -
05.04.2020 06:00:00 13,8 13,7 21 11 N 1008,9 -
05.04.2020 05:00:00 13,7 13,6 18 10 NNE 1008,9 -
05.04.2020 04:00:00 13,7 13,6 21 11 N 1008,9 -
05.04.2020 03:00:00 13,8 12,8 18 10 NNE 1009,3 -
05.04.2020 02:00:00 13,9 12,9 21 11 N 1009,6 0,0
05.04.2020 01:00:00 13,9 12,9 16 9 N 1009,8 -
05.04.2020 00:00:00 13,8 12,8 18 10 N 1010,0 -
04.04.2020 23:00:00 14,0 13,8 18 10 NNE 1009,9 -
04.04.2020 22:00:00 13,2 12,2 16 9 NNO 1010,3 -
04.04.2020 21:00:00 13,6 12,6 22 12 NO 1010,0 -
04.04.2020 20:00:00 13,6 12,6 22 12 NNO 1009,7 0,0
04.04.2020 19:00:00 14,6 13,9 31 17 NO 1008,9 -
04.04.2020 18:00:00 15,3 13,9 29 16 N 1008,9 -
04.04.2020 17:00:00 15,7 15,0 29 16 N 1008,4 -
04.04.2020 16:00:00 16,0 15,0 26 14 N 1008,5 -
04.04.2020 15:00:00 16,0 15,3 29 16 N 1008,6 -
04.04.2020 14:00:00 16,2 15,2 26 14 NNE 1008,8 0,0
04.04.2020 13:00:00 16,1 14,6 26 14 N 1008,9 -
04.04.2020 12:00:00 15,4 14,4 24 13 N 1009,0 -
04.04.2020 11:00:00 15,3 14,3 21 11 NNE 1009,0 -
04.04.2020 10:00:00 14,4 13,4 24 13 N 1009,2 -
04.04.2020 09:00:00 12,9 12,8 21 11 N 1009,5 -
04.04.2020 08:00:00 11,9 11,9 16 9 NNO 1009,7 -
04.04.2020 07:00:00 11,4 11,4 18 10 NNO 1009,5 -
04.04.2020 06:00:00 10,8 10,8 16 9 NNO 1009,6 -
04.04.2020 05:00:00 10,8 10,8 18 10 NNO 1009,7 -
04.04.2020 04:00:00 10,8 10,8 16 9 NNO 1010,0 -
04.04.2020 03:00:00 11,5 11,5 21 11 N 1010,1 -
04.04.2020 02:00:00 11,3 11,3 18 10 N 1010,5 -
04.04.2020 01:00:00 11,2 11,2 16 9 NNE 1010,8 -
04.04.2020 00:00:00 11,3 11,3 15 8 N 1011,1 -
03.04.2020 23:00:00 11,2 11,2 15 8 N 1011,3 -
03.04.2020 22:00:00 10,9 10,9 13 7 NNE 1011,4 -
03.04.2020 21:00:00 10,7 10,7 13 7 N 1011,4 -
03.04.2020 20:00:00 10,7 10,7 8 4 NE 1011,4 -
03.04.2020 19:00:00 10,5 10,5 13 7 N 1011,3 -
03.04.2020 18:00:00 10,7 10,7 11 6 N 1011,4 -
03.04.2020 17:00:00 10,9 10,9 9 5 N 1011,4 -
03.04.2020 16:00:00 11,3 11,3 9 5 N 1011,6 -
03.04.2020 15:00:00 11,8 11,8 9 5 N 1011,8 -
03.04.2020 14:00:00 11,5 11,5 8 4 NNE 1012,5 -
03.04.2020 13:00:00 11,8 11,8 8 4 N 1012,7 -
03.04.2020 12:00:00 12,1 11,3 11 6 N 1012,9 -
03.04.2020 11:00:00 11,8 11,0 8 4 NNE 1012,7 -
03.04.2020 10:00:00 11,9 11,4 9 5 NNE 1012,7 -
03.04.2020 09:00:00 10,9 10,1 5 3 NO 1012,7 -
03.04.2020 08:00:00 8,0 7,7 5 3 NNO 1012,4 0,0
03.04.2020 07:00:00 8,1 7,2 8 4 NO 1012,4 -
03.04.2020 06:00:00 8,0 7,1 5 3 NO 1012,5 -
03.04.2020 05:00:00 7,9 6,8 4 2 NNO 1012,4 -
03.04.2020 04:00:00 7,0 5,9 5 3 NO 1013,1 -
03.04.2020 03:00:00 6,5 5,4 5 3 ONO 1013,4 -
03.04.2020 02:00:00 5,8 4,6 5 3 ONO 1013,8 0,0
03.04.2020 01:00:00 6,2 5,0 5 3 NO 1014,0 -
03.04.2020 00:00:00 6,1 4,9 4 2 ONO 1014,0 -
02.04.2020 23:00:00 6,3 5,1 5 3 NO 1014,0 -
02.04.2020 22:00:00 6,5 5,3 5 3 NO 1014,0 -
02.04.2020 21:00:00 7,8 6,4 5 3 N 1013,6 -
02.04.2020 20:00:00 9,3 7,9 8 4 NNE 1013,0 0,0
02.04.2020 19:00:00 10,6 8,8 9 5 NE 1013,1 -
02.04.2020 18:00:00 11,6 9,7 15 8 NNE 1012,6 -
02.04.2020 17:00:00 12,2 9,9 15 8 N 1013,4 -
02.04.2020 16:00:00 12,4 10,1 16 9 NNE 1013,5 -
02.04.2020 15:00:00 12,5 10,4 15 8 NNO 1013,8 -
02.04.2020 14:00:00 12,5 10,7 16 9 N 1014,1 0,0
02.04.2020 13:00:00 12,1 10,5 16 9 NE 1014,3 -
02.04.2020 12:00:00 11,7 10,3 13 7 N 1014,4 -
02.04.2020 11:00:00 10,2 8,8 9 5 NNO 1014,5 -
02.04.2020 10:00:00 9,6 9,1 9 5 NNO 1014,2 -
02.04.2020 09:00:00 8,4 7,9 9 5 NNO 1013,7 -
02.04.2020 08:00:00 7,2 6,6 9 5 ONO 1013,7 0,0
02.04.2020 07:00:00 6,5 5,9 9 5 NO 1013,4 -
02.04.2020 06:00:00 5,9 5,5 8 4 ONO 1013,3 -
02.04.2020 05:00:00 5,5 4,4 9 5 ONO 1013,2 -
02.04.2020 04:00:00 6,4 5,2 13 7 NO 1013,1 -
02.04.2020 03:00:00 6,4 5,2 9 5 ONO 1013,0 -
02.04.2020 02:00:00 6,5 5,3 15 8 NNO 1013,3 0,0
02.04.2020 01:00:00 5,6 4,4 13 7 O 1013,7 -

tt = Temperatura
td = dewpoint
ff = velocità del vento
dd = direzione del vento
ppp = reduced air pressure
rr = precipitazioni

Stazioni seguenti

WeatherPro
AMSI
MeteoEarth